Location: Norton
(51.3000°N, 0.8167°E)
Time: 18:04:20
(UTC+00:00)

Meteor 1-11 Rocket - Pass Details

Date: 03 March 2021
Orbit: 831 x 916 km, 81.2° (Epoch: 13 April)

Event Time Altitude Azimuth Distance (km) Brightness Sun altitude
Rises 19:24:58 0° 172° (S) 3,461 6.7 -17.0°
Reaches altitude 10° 19:27:30 10° 166° (SSE) 2,514 5.9 -17.3°
Maximum altitude 19:32:56 48° 94° (E) 1,115 3.9 -18.2°
Drops below altitude 10° 19:38:18 10° 22° (NNE) 2,480 6.0 -19.0°
Sets 19:40:46 0° 17° (NNE) 3,410 6.8 -19.4°
